Location: ??????
(41.3164°N, 22.6615°E)
Time: 20:08:25
(UTC+00:00)

CUBESAT XI-V - Pass Details

Date: 30 June 2022
Orbit: 668 x 690 km, 98.1° (Epoch: 11 August)

Event Time Altitude Azimuth Distance (km) Brightness Sun altitude
Exits shadow 23:41:04 27° 118° (ESE) 1,276 ? -23.7°
Maximum altitude 23:42:53 40° 71° (ENE) 1,001 ? -23.6°
Drops below altitude 10° 23:47:10 10° 2° (N) 2,109 ? -23.3°
Sets 23:49:30 0° 355° (N) 3,024 ? -23.2°
